APSTAR-6E

Last updated on Mon Jun 22 2026 00:03:07 GMT+0000 (Coordinated Universal Time)

1 55239U 23005A 26172.51642083 -.00000319 00000+0 00000+0 0 9993 2 55239 0.0336 240.6321 0000753 315.1115 33.8531 1.00272313 18739
UTC large
Height (km)
Speed (km/s)
/
Latitude / Longitude
Inclination (degrees)
Orbital Period (minutes)
Azimuth
Elevation
Range (km)
Doppler Factor

Next 0 passes for location: London (51.5072 / 0.1276)

No passes found over London.
APSTAR-6E